Regional Weather Roundup
Issued by NWS Memphis, TN

Home | Current Version | Previous Version | Text Only | Print | Product List | Glossary On
Versions: 1 2 3 4 5 6 7 8 9 10 11 12 13 14 15 16 17 18 19 20 21 22 23 24 25 26 27 28 29 30 31 32 33 34 35 36 37 38 39 40 41 42 43 44 45 46 47 48 49 50
191
ASUS44 KMEG 230210
RWRMEG
MEMPHIS CWA HOURLY WEATHER ROUNDUP
NATIONAL WEATHER SERVICE MEMPHIS TN
900 PM CDT FRI SEP 22 2017

...WEST TENNESSEE...

CITY           SKY/WX    TMP DP  RH WIND       PRES   REMARKS
MEMPHIS INTL   PTCLDY    83  68  60 E3        29.99R
NWS MEMPHIS      N/A     76 N/A N/A MISG        N/A
JACKSON        CLEAR     74  72  93 CALM      30.01R
COVINGTON      CLEAR     75  72  88 CALM      29.99R
SOMERVILLE     CLEAR     73  72  94 CALM      29.98S
BOLIVAR        CLEAR     72  70  94 CALM      29.99S
LEXINGTON      CLEAR     72  72 100 CALM      30.01R
SELMER         CLEAR     73  72  94 CALM      30.00
SAVANNAH       CLEAR     73  72  94 CALM      29.99R
DYERSBURG      CLEAR     75  70  84 CALM      30.01R
PARIS          CLEAR     70  68  94 CALM      30.01R
HUNTINGDON     CLEAR     73  70  88 CALM      30.00R


...EASTERN ARKANSAS...

CITY           SKY/WX    TMP DP  RH WIND       PRES   REMARKS
JONESBORO      CLEAR     75  70  84 NE6       29.98R
WEST MEMPHIS   CLEAR     77  70  79 CALM      29.97R
BATESVILLE     CLEAR    N/A N/A N/A CALM      30.00R
NEWPORT        CLEAR     77  70  79 CALM      29.98R
BLYTHEVILLE    CLEAR     79  72  79 E5        29.99R
SEARCY         CLEAR     74  71  91 CALM      29.99R
STUTTGART      CLEAR     81  71  71 E6        29.96R
PINE BLUFF     CLEAR     76  71  85 CALM      29.96R
MONTICELLO     CLEAR     76  73  91 CALM      29.96R


...NORTH MISSISSIPPI...

CITY           SKY/WX    TMP DP  RH WIND       PRES   REMARKS
TUPELO         CLEAR     78  69  73 CALM      29.98R
OXFORD         CLEAR     73  70  88 CALM      30.01R
BATESVILLE     CLEAR     73  71  93 CALM      29.99R
TUNICA           N/A     73  70  88 NE3       29.98R
CLARKSDALE       N/A     81  75  83 NE5       29.97R
GREENWOOD      CLEAR     76  73  91 NE5       29.96R
COLUMBUS       CLEAR     75  73  95 CALM      29.97R
STARKVILLE     CLEAR     73  72  94 CALM      29.99R


...SOUTHEAST MISSOURI...

CITY           SKY/WX    TMP DP  RH WIND       PRES   REMARKS
KENNETT        CLEAR     77  72  83 CALM      29.97S
MALDEN         CLEAR     81  66  61 CALM      30.00R
WEST PLAINS    CLEAR     74  66  76 CALM      30.04R
POPLAR BLUFF   CLEAR     74  69  85 CALM      29.99R
CAPE GIRARDEAU CLEAR     76  67  73 CALM      29.99R


...NORTHWEST ALABAMA...

CITY           SKY/WX    TMP DP  RH WIND       PRES   REMARKS
MUSCLE SHOALS  CLEAR     74  69  85 CALM      30.01R


...MIDDLE TENNESSEE...

CITY           SKY/WX    TMP DP  RH WIND       PRES   REMARKS
NASHVILLE      CLEAR     80  67  64 CALM      30.03R
CLARKSVILLE    CLEAR     74  66  76 CALM      30.02R
COLUMBIA       CLEAR     73 N/A N/A CALM      30.01R


...WESTERN KENTUCKY...

CITY           SKY/WX    TMP DP  RH WIND       PRES   REMARKS
PADUCAH        CLEAR     74  68  81 CALM      30.00R


...CENTRAL ARKANSAS...

CITY           SKY/WX    TMP DP  RH WIND       PRES   REMARKS
LITTLE ROCK    CLEAR     78  72  81 CALM      29.96R


SKY/WX REPORTED AS FAIR MEANS FEW OR NO CLOUDS BELOW
12 THOUSAND FEET.





USA.gov is the U.S. government's official web portal to all federal, state and local government web resources and services.